Precipitable_Water
1.42 1.56 1.48 1.35 1.20 1.08 1.20 1.18 1.21 1.23 1.18 1.12 1.10 1.12 1.22 1.23 1.19 1.13 1.14 1.24 1.29 1.15 1.07 1.01 0.96 0.94 0.90 0.92 1.04 1.11 1.17 1.07 0.96 0.92 0.88 0.89 0.93 0.89 0.84 0.90 1.01 1.02 0.98
1.42 1.52 1.64 1.44 1.33 1.19 1.21 1.21 1.20 1.19 1.15 1.16 1.12 1.06 1.11 1.14 1.15 1.24 1.37 1.47 1.36 1.22 1.11 1.09 1.07 0.95 0.93 0.92 0.97 1.03 1.13 1.10 1.02 0.98 0.89 0.84 0.89 0.95 1.04 1.08 1.02 1.11 1.13
1.36 1.47 1.65 1.63 1.42 1.29 1.24 1.21 1.21 1.20 1.17 1.17 1.15 1.11 1.07 1.10 1.21 1.35 1.46 1.52 1.25 1.07 1.00 0.96 0.98 0.98 0.90 0.94 0.91 0.92 0.98 0.96 0.91 1.07 1.11 1.17 1.06 1.11 1.33 1.33 1.35 1.39 1.41
1.37 1.43 1.58 1.69 1.55 1.35 1.28 1.21 1.29 1.22 1.18 1.16 1.15 1.19 1.25 1.29 1.34 1.37 1.48 1.41 1.25 1.11 1.00 0.88 0.87 0.87 0.87 0.88 0.88 0.92 0.93 0.93 1.00 1.14 1.12 1.09 1.13 1.16 1.41 1.34 1.44 1.40 1.32
1.39 1.46 1.52 1.69 1.67 1.47 1.35 1.36 1.36 1.27 1.29 1.30 1.33 1.41 1.37 1.31 1.25 1.33 1.37 1.29 1.16 1.05 0.89 0.78 0.78 0.76 0.79 0.84 0.89 0.92 0.89 0.85 0.94 1.05 0.97 1.04 1.06 1.19 1.24 1.26 1.29 1.25 1.23
1.29 1.45 1.52 1.62 1.74 1.64 1.40 1.32 1.44 1.39 1.41 1.43 1.47 1.41 1.31 1.21 1.25 1.30 1.26 1.19 1.09 0.88 0.66 0.65 0.67 0.69 0.73 0.82 0.88 0.97 0.87 0.83 0.94 0.98 1.10 1.12 1.13 1.08 1.15 1.15 1.15 1.14 1.13
1.03 1.31 1.47 1.60 1.68 1.63 1.62 1.34 1.49 1.54 1.46 1.43 1.39 1.26 1.18 1.22 1.26 1.23 1.16 1.05 0.84 0.67 0.68 0.70 0.68 0.66 0.74 0.86 1.03 0.94 0.81 0.84 1.02 1.24 1.32 1.34 1.27 1.19 1.08 0.98 1.01 1.02 1.04
0.81 1.18 1.39 1.59 1.66 1.63 1.69 1.54 1.45 1.56 1.47 1.40 1.30 1.14 1.18 1.12 1.11 1.09 0.98 0.80 0.68 0.70 0.73 0.75 0.73 0.71 0.83 0.87 0.89 0.82 0.76 0.92 1.26 1.31 1.33 1.24 1.15 1.10 1.03 0.99 0.96 0.93 0.90
0.73 1.03 1.32 1.55 1.66 1.65 1.66 1.71 1.47 1.55 1.48 1.33 1.21 1.17 1.09 1.02 0.94 0.86 0.77 0.71 0.70 0.74 0.77 0.81 0.79 0.86 0.84 0.85 0.82 0.78 0.77 1.19 1.30 1.24 1.19 1.12 1.04 1.01 0.97 0.91 0.91 0.84 0.78
0.74 1.01 1.24 1.47 1.61 1.69 1.61 1.76 1.65 1.46 1.46 1.34 1.33 1.18 1.00 0.90 0.84 0.78 0.72 0.72 0.75 0.79 0.88 0.82 0.87 0.83 0.82 0.79 0.76 0.75 0.92 1.18 1.17 1.13 1.09 1.06 0.99 0.86 0.80 0.77 0.76 0.75 0.74
0.71 0.94 1.12 1.47 1.65 1.71 1.62 1.74 1.75 1.43 1.50 1.46 1.37 1.21 0.97 0.85 0.76 0.74 0.74 0.72 0.81 0.87 0.88 0.86 0.89 0.90 0.89 0.90 0.91 0.94 1.03 1.09 1.08 1.04 1.02 0.98 0.90 0.81 0.80 0.78 0.82 0.81 0.82
0.60 0.82 0.97 1.37 1.70 1.77 1.70 1.72 1.73 1.51 1.59 1.45 1.36 1.20 0.96 0.81 0.75 0.76 0.77 0.77 0.80 0.92 0.91 0.94 0.94 0.90 0.90 0.90 0.92 0.97 1.04 1.06 1.04 0.98 0.95 0.94 0.88 0.82 0.81 0.85 0.84 0.86 0.96
0.64 0.71 0.97 1.15 1.58 1.67 1.74 1.70 1.77 1.49 1.57 1.47 1.37 1.20 0.87 0.80 0.78 0.79 0.76 0.80 0.86 0.99 0.96 0.95 0.87 0.87 0.87 0.85 0.83 0.86 0.96 0.97 0.99 0.92 0.93 0.90 0.88 0.85 0.81 0.79 0.87 0.92 0.92
0.69 0.65 0.74 1.09 1.51 1.56 1.73 1.68 1.77 1.48 1.60 1.51 1.33 1.15 0.84 0.79 0.73 0.70 0.73 0.74 0.92 0.98 0.92 0.87 0.83 0.87 0.89 0.88 0.84 0.85 0.88 0.90 0.91 0.87 0.85 0.86 0.87 0.85 0.81 0.80 0.84 0.88 0.92
0.73 0.71 0.68 0.82 1.32 1.54 1.53 1.62 1.68 1.54 1.63 1.53 1.36 1.10 0.85 0.74 0.66 0.69 0.75 0.76 0.90 0.94 0.90 0.81 0.80 0.81 0.81 0.80 0.82 0.86 0.87 0.85 0.82 0.84 0.84 0.87 0.88 0.89 0.88 0.86 0.83 0.84 0.84
0.75 0.73 0.75 0.78 1.13 1.39 1.44 1.57 1.66 1.56 1.65 1.62 1.30 1.11 0.82 0.71 0.66 0.68 0.75 0.75 0.90 0.88 0.81 0.75 0.76 0.73 0.74 0.78 0.83 0.84 0.81 0.76 0.81 0.83 0.81 0.86 0.90 0.91 0.92 0.91 0.90 0.88 0.85
0.78 0.78 0.77 0.80 1.01 1.21 1.32 1.33 1.54 1.62 1.60 1.62 1.34 1.07 0.82 0.69 0.66 0.69 0.73 0.71 0.80 0.76 0.72 0.71 0.71 0.73 0.74 0.79 0.79 0.78 0.75 0.70 0.75 0.80 0.82 0.84 0.87 0.87 0.88 0.89 0.90 0.90 0.89
0.83 0.79 0.84 0.92 0.95 1.11 1.24 1.31 1.38 1.57 1.60 1.58 1.38 1.02 0.79 0.69 0.67 0.68 0.68 0.66 0.71 0.69 0.68 0.64 0.62 0.65 0.71 0.71 0.68 0.64 0.63 0.67 0.70 0.72 0.76 0.77 0.79 0.81 0.81 0.82 0.83 0.85 0.86
0.82 0.81 0.83 0.94 0.91 1.01 1.17 1.25 1.37 1.52 1.45 1.43 1.32 0.89 0.70 0.67 0.66 0.63 0.63 0.65 0.67 0.66 0.64 0.61 0.57 0.53 0.52 0.53 0.53 0.54 0.57 0.60 0.63 0.67 0.69 0.72 0.74 0.76 0.76 0.77 0.78 0.79 0.80
0.85 0.88 0.89 0.88 0.95 0.98 1.09 1.25 1.30 1.32 1.29 1.26 1.10 0.82 0.65 0.66 0.65 0.62 0.64 0.65 0.64 0.62 0.61 0.61 0.56 0.55 0.51 0.50 0.52 0.55 0.59 0.62 0.64 0.66 0.68 0.71 0.72 0.76 0.78 0.75 0.76 0.78 0.80
0.89 0.95 0.95 0.92 0.97 0.98 1.02 1.09 1.16 1.20 1.23 1.21 1.02 0.82 0.66 0.63 0.65 0.65 0.64 0.65 0.65 0.61 0.60 0.60 0.57 0.54 0.53 0.54 0.52 0.56 0.61 0.67 0.69 0.72 0.74 0.75 0.77 0.80 0.82 0.81 0.82 0.82 0.81
0.93 1.02 0.98 1.02 1.08 1.04 1.12 1.17 1.20 1.20 1.22 1.16 1.02 0.82 0.70 0.64 0.64 0.65 0.64 0.64 0.65 0.65 0.63 0.61 0.58 0.54 0.55 0.57 0.50 0.53 0.49 0.59 0.69 0.74 0.78 0.80 0.82 0.84 0.84 0.86 0.89 0.88 0.86
0.98 1.06 1.06 1.04 1.07 1.12 1.15 1.19 1.20 1.17 1.18 1.13 1.01 0.82 0.70 0.65 0.63 0.64 0.65 0.66 0.67 0.69 0.64 0.63 0.59 0.55 0.49 0.55 0.60 0.50 0.46 0.46 0.59 0.74 0.77 0.81 0.82 0.85 0.87 0.89 0.91 0.89 0.89
0.93 1.06 1.12 1.06 1.09 1.10 1.16 1.16 1.13 1.12 1.08 1.11 1.06 0.88 0.76 0.70 0.66 0.64 0.65 0.68 0.70 0.71 0.67 0.65 0.65 0.60 0.55 0.49 0.53 0.54 0.54 0.58 0.53 0.55 0.72 0.78 0.82 0.84 0.89 0.95 0.91 0.89 0.92
0.98 1.05 1.10 1.13 1.14 1.13 1.10 1.13 1.11 1.10 1.09 1.07 1.02 0.94 0.79 0.74 0.70 0.68 0.65 0.65 0.67 0.69 0.69 0.67 0.65 0.63 0.60 0.55 0.49 0.48 0.47 0.53 0.59 0.57 0.55 0.64 0.81 0.90 0.97 0.99 0.94 0.94 0.92
0.96 1.03 1.07 1.11 1.13 1.13 1.03 1.06 1.07 1.04 1.01 0.98 0.95 0.93 0.90 0.78 0.72 0.68 0.66 0.64 0.65 0.66 0.66 0.66 0.65 0.63 0.59 0.55 0.53 0.51 0.48 0.46 0.48 0.51 0.55 0.67 0.74 0.85 0.93 0.92 0.92 0.92 0.91
Wind_Speed
13 14 17 17 17 18 17 17 17 17 17 16 15 14 14 14 13 13 13 13 13 13 13 12 11 11 10 10 9 9 10 10 9 9 9 9 9 8 8 7 7 7 7
14 16 19 20 20 20 19 18 19 19 18 17 16 15 15 15 15 14 14 14 15 14 12 12 11 10 10 10 10 9 9 9 9 9 9 8 8 7 7 7 7 6 6
16 17 20 22 22 22 22 21 20 20 20 19 17 16 16 16 16 15 16 17 15 12 11 11 10 10 10 10 10 9 9 9 9 8 8 7 7 7 7 6 6 7 8
18 19 21 24 25 24 24 23 22 22 21 20 19 18 17 17 17 17 17 16 14 12 11 11 10 10 10 10 10 9 9 9 8 7 6 6 6 7 8 8 9 8 8
21 21 24 25 27 27 26 25 24 23 23 22 21 20 19 19 18 18 18 16 14 12 11 11 11 11 11 11 10 10 9 8 6 4 6 5 6 6 6 7 6 6 5
26 24 25 27 29 30 29 28 27 25 25 24 23 21 20 20 20 19 18 16 14 12 11 11 12 12 12 11 10 10 9 8 5 5 6 6 6 5 5 5 4 4 4
30 28 29 30 30 33 32 30 29 28 27 26 24 23 22 21 21 20 18 16 15 13 13 13 13 13 12 11 11 10 9 7 6 6 7 8 7 6 5 3 2 3 4
34 33 32 33 32 35 35 33 32 30 29 28 26 24 24 23 22 21 19 17 16 15 14 14 13 13 12 12 11 10 9 7 7 8 8 7 5 4 3 3 3 3 4
33 36 36 36 35 37 37 37 34 32 31 30 27 26 25 24 23 22 20 19 18 16 15 15 15 13 12 12 11 10 10 9 8 8 7 5 4 2 2 2 2 3 4
32 36 38 37 38 39 39 39 37 35 33 31 29 28 27 25 24 23 22 21 19 18 17 16 16 14 13 12 12 11 12 9 8 7 5 4 2 2 2 3 3 3 3
33 34 39 39 40 40 42 40 39 37 35 34 31 30 28 26 26 25 24 22 21 20 19 18 16 15 13 13 13 13 11 9 7 6 5 3 2 2 2 3 3 3 3
34 35 39 39 37 39 43 42 41 39 38 36 33 32 29 28 27 26 25 24 23 21 20 19 17 16 14 13 13 12 11 9 7 6 5 3 2 2 2 2 3 3 4
34 37 38 41 39 37 44 44 43 41 40 37 35 34 31 29 29 28 27 26 25 23 22 21 19 17 15 14 14 11 11 9 7 5 6 4 2 2 1 1 2 3 4
35 36 38 41 40 39 45 46 44 43 41 38 36 35 32 31 30 29 28 27 26 25 24 22 21 18 17 16 14 13 12 10 8 6 6 5 3 2 0 1 2 3 4
33 36 39 41 43 33 32 46 45 44 43 41 37 37 34 32 31 30 29 29 28 27 25 24 22 20 19 17 16 14 13 11 9 8 7 5 4 2 2 2 3 4 5
30 34 38 41 43 42 33 34 43 46 44 42 40 38 36 34 33 32 31 30 29 28 27 25 23 22 20 19 17 16 14 12 11 9 8 7 5 4 4 4 5 6 7
28 33 37 40 41 38 36 38 40 45 46 44 41 39 37 36 35 33 32 31 30 29 28 26 25 23 21 20 19 17 16 14 13 11 10 9 8 7 6 7 7 8 9
25 31 36 38 36 43 38 25 39 45 45 46 42 41 39 37 36 35 33 32 31 30 29 27 26 24 23 22 20 19 17 16 15 13 13 12 11 11 10 10 10 11 11
25 30 34 35 32 37 36 34 33 36 44 44 44 41 40 39 38 36 34 33 32 31 30 28 27 26 25 23 21 20 19 18 17 16 15 14 14 13 13 12 13 13 14
24 29 32 33 32 34 32 33 32 41 41 40 43 42 41 40 38 37 35 34 33 32 31 29 28 27 26 24 23 21 20 19 19 18 17 17 16 16 16 16 16 17 17
20 26 30 31 32 35 27 33 30 41 42 39 39 41 41 40 39 37 36 35 34 33 32 31 29 28 27 26 24 22 21 21 21 20 20 19 19 19 19 19 19 20 20
17 22 25 29 33 29 27 29 31 32 40 41 42 42 41 40 39 38 36 35 34 33 32 31 30 29 28 27 25 24 23 23 23 23 22 22 22 21 21 22 22 22 23
14 18 21 26 30 27 27 26 30 28 30 42 40 41 41 40 39 38 37 35 35 34 33 32 32 30 29 30 28 25 24 24 24 25 25 25 24 24 25 25 26 27 27
12 17 18 21 26 26 26 26 29 27 28 31 40 40 41 39 38 37 37 36 35 34 33 33 32 31 30 30 29 27 26 24 25 24 27 27 27 27 27 28 28 28 30
11 15 21 18 18 24 25 25 25 28 25 26 33 38 40 39 39 37 37 36 35 34 34 33 33 32 31 30 30 29 28 27 26 25 26 27 28 29 30 30 29 30 31
10 13 20 21 19 19 21 22 23 25 25 25 26 32 38 38 38 38 37 36 35 34 34 33 33 32 31 31 31 30 29 28 28 27 26 27 30 30 30 31 32 32 32
Wind_Direction
250 232 219 214 210 206 202 198 194 192 190 188 186 185 183 180 176 173 170 166 160 155 153 150 148 146 144 139 133 128 123 119 116 111 107 103 98 94 94 88 85 79 73
257 236 224 218 214 210 207 203 200 197 195 193 190 188 186 184 180 176 173 168 160 156 155 153 152 151 148 145 140 135 130 123 118 114 109 104 98 94 94 87 87 79 74
259 239 228 222 217 213 210 206 204 201 199 197 195 192 188 185 181 176 170 165 164 164 164 164 160 157 154 151 147 142 137 132 125 118 116 100 98 94 89 92 87 83 82
257 243 230 224 219 216 213 210 206 204 202 199 197 195 189 185 181 178 175 173 173 173 173 172 170 166 162 158 154 149 144 139 133 124 109 113 100 98 92 92 90 87 80
255 245 233 226 221 218 214 211 209 207 204 201 198 194 190 188 187 183 181 181 182 181 180 178 176 172 167 162 159 155 150 145 139 127 127 116 116 105 100 90 86 78 66
253 246 235 227 223 220 216 214 211 208 205 202 199 196 195 193 189 187 186 187 188 188 184 179 175 172 169 166 163 160 156 151 144 134 127 123 120 118 101 90 75 58 44
250 246 236 228 225 220 217 215 212 209 207 204 202 202 199 195 193 192 192 193 192 188 183 178 174 172 170 168 164 163 161 156 150 136 131 123 117 105 93 86 57 36 21
250 242 237 229 227 220 218 215 212 210 208 206 205 204 201 199 198 197 198 197 193 188 184 180 176 174 173 172 170 167 165 159 147 138 133 130 121 105 82 56 40 24 11
250 240 235 229 227 221 219 216 213 211 209 208 207 203 201 200 200 200 199 197 193 190 187 183 178 176 174 174 172 171 165 155 144 147 142 134 119 99 56 36 34 25 21
250 239 233 229 226 221 218 216 213 211 210 208 205 203 202 202 202 202 199 197 194 191 186 182 180 178 175 174 172 169 165 157 152 151 148 144 119 82 65 57 55 45 34
247 237 230 228 224 220 217 216 213 210 209 206 205 204 204 204 203 202 201 198 196 193 189 185 182 179 176 172 169 165 166 167 164 159 158 147 123 100 76 70 56 38 31
245 235 228 224 222 221 217 215 212 210 207 207 207 205 206 205 204 203 201 199 197 195 191 188 187 182 179 177 176 175 181 180 181 180 176 163 142 113 85 68 45 32 14
244 233 226 220 220 221 216 213 211 209 208 207 207 207 207 205 204 203 201 200 197 195 194 192 191 190 191 188 185 190 186 186 184 183 183 181 169 140 87 52 28 8 356
242 232 224 218 218 219 219 211 210 209 208 207 207 207 207 206 205 204 203 202 200 199 198 198 196 199 197 196 196 193 191 192 193 187 184 182 178 171 152 7 351 353 355
237 230 222 217 216 215 218 211 211 209 209 209 208 207 207 207 206 205 205 204 203 202 202 202 203 202 202 201 199 197 197 198 197 195 195 196 198 211 241 302 314 320 324
236 228 221 216 214 215 219 207 209 209 209 208 208 208 208 208 207 207 206 206 204 205 205 205 205 205 204 203 203 203 204 205 206 207 207 211 217 235 258 283 302 310 314
237 227 220 217 221 218 215 223 211 210 209 208 209 209 209 208 208 208 207 207 207 206 206 206 207 207 207 207 208 209 211 212 214 216 220 226 235 251 265 278 290 298 304
235 225 218 215 218 217 217 209 214 211 210 209 208 209 208 208 208 208 208 208 207 207 207 208 209 209 210 211 213 215 217 218 220 224 229 236 245 253 265 275 284 292 298
236 224 217 217 221 212 214 219 212 200 204 209 207 208 208 208 208 209 209 209 208 208 209 210 211 212 213 214 216 219 221 224 228 232 237 244 250 257 265 272 281 287 291
233 220 215 216 212 207 211 212 210 205 205 206 206 207 207 208 208 209 209 209 209 210 211 212 213 214 215 216 218 221 226 230 234 238 243 248 252 260 266 272 278 284 287
220 212 209 207 208 206 214 207 206 205 207 213 206 207 207 208 208 209 210 210 211 212 213 214 214 215 217 218 220 225 230 235 238 243 247 251 256 261 267 272 278 282 284
211 207 208 207 201 205 208 206 210 207 212 209 210 207 208 208 209 210 211 211 213 214 215 215 216 217 220 220 226 229 235 240 243 246 250 254 258 262 267 273 278 280 283
211 204 208 202 203 209 213 210 206 206 207 207 209 210 209 208 210 211 212 213 214 216 217 217 218 220 222 224 226 236 239 244 242 247 251 255 259 264 268 273 277 278 281
207 205 203 197 202 206 207 205 200 203 205 207 209 209 208 209 211 212 213 214 216 218 219 220 221 223 226 228 233 238 243 245 248 252 253 256 260 265 270 274 277 278 281
209 205 197 193 196 202 206 209 208 204 204 204 206 207 210 210 212 213 215 216 217 220 221 222 224 227 229 231 234 237 243 247 251 255 258 258 262 267 271 273 275 280 282
210 203 202 204 202 199 205 204 200 199 206 206 208 210 211 213 214 215 217 219 220 222 224 225 227 229 231 234 236 240 244 249 251 256 260 262 266 269 271 275 275 277 280